FENGYUN 1C DEB, 31537

Orbit data source: Space-Track

FENGYUN 1C DEB, 31537 is space debris in SSO originally from a launch on Mon, 10 May 1999 UTC launched from the Taiyaun Space Center, China (TSC). Fengyun 1C debris stems from the Chinese weather satellite Fengyun-1C, which was intentionally destroyed by a Chinese anti-satellite missile in 2007. This event dramatically increased the amount of space debris, with thousands of trackable fragments posing hazards to satellites and human spaceflight. The Fengyun 1C debris cloud has become a focal point in discussions about space sustainability and the need for international regulations to prevent the creation of new debris.

Loading next visibility...
Identifier
31537, 1999-025BYC
Orbit
SSO
Country
Flag of CNCN / PRC
Related business
Manufacturer
Unknown
Mission
Spacecraft
Bus & Motor
Unknown
Mass
Unknown
Launch date (UTC)
1999-05-10 (27 years ago)
Launch vehicle
Unknown
Launch site
Taiyaun Space Center, China (TSC)
Object type
Payload
Rocket body
Debris
Shape & HBR
Unknown shape, 0.1 m
Radar Cross Section
Small (<0.1 m²)

Expand to show TLE details & history
Last TLE update: 7 hours ago

TLE from 7 hours ago
0 FENGYUN 1C DEB
1 31537U 99025BYC 26104.25608977  .00002057  00000-0  51595-3 0  9993
2 31537  99.3032 269.3652 0335316 335.6364  22.9269 14.23882733950231
Epoch: 2026-04-14T06:08Z
TLE epoch observation values (Epoch: 2026-04-14T06:08:46.156Z)
Latitude
-0.00003°
Longitude
-25.26206°
Altitude
594.342 km
Speed
7.678 km/s
True Right ascension
17h 57m 27s
True Declination
0° 00' 00"
Sunlit
Object was in daylight at epoch
Visualization orbit readout
Latitude
Unknown
Longitude
Unknown
Altitude
Unknown
Speed
Unknown
Apparent Right ascension
Unknown
Apparent Declination
Unknown
Sunlit
N/A
Visualization observer readout
Local Sidereal Time
19:13:04
Azimuth
Unknown
Elevation
Unknown
Doppler factor
Unknown
Orbital elements
Apogee altitude
1,050.44 km
Perigee altitude
568.419 km
Semi-major axis
7,187.567 km
Eccentricity
0.03353
Inclination
99.3032°
RAAN
269.3652°
Arg. of periapsis
335.6364°
True anomaly
24.48356°
Mean anomaly
22.9269°
Eccentric anomaly
23.6991°
Mean motion
3.56181 °/min
Orbital period
101.07 mins
BSTAR
0.00051595
Loading maneuver chart data...
Computing Atmospheric mass density...

Documentation

Showing up to 5 results
|